Location: Boiro
(42.6475°N, 8.8834°W)
Time: 20:54:29
(UTC+01:00)

Vanguard 3 - Pass Details

Date: 30 November 2021
Orbit: 508 x 3260 km, 33.3° (Epoch: 17 January)

Event Time Altitude Azimuth Distance (km) Brightness Sun altitude
Rises 10:17:07 0° 271° (W) 6,768 11.4 12.6°
Reaches altitude 10° 10:22:22 10° 266° (W) 5,412 11.0 13.2°
Maximum altitude 10:36:01 46° 201° (SSW) 2,316 10.0 14.9°
Drops below altitude 10° 10:44:02 10° 131° (SE) 3,239 12.4 15.8°
Sets 10:46:24 0° 124° (SE) 3,920 12.1 16.1°
